Wind_Speed
40 42 35 33 40 38 39 32 31 34 35 38 31 28 31 31 33 28 23 21 19 15 11 14 13 12 10 10 11 14 11 13 14 14 12 11 12 11 12 15 18 21 24 24
46 45 40 40 43 42 43 37 32 34 36 33 32 33 33 29 30 26 23 20 18 13 10 14 14 11 11 12 13 14 14 14 16 15 14 12 12 13 15 17 20 22 25 24
52 45 47 46 45 46 44 40 34 33 33 40 36 38 35 30 27 27 24 20 20 18 13 14 14 12 15 15 14 14 16 16 16 15 16 15 16 18 20 22 22 23 26 24
53 53 49 48 49 48 47 39 38 34 36 40 36 40 37 31 30 25 22 21 18 18 15 15 14 15 17 16 15 19 21 20 19 16 16 16 17 19 21 23 23 25 20 21
40 49 50 51 49 49 49 40 40 40 37 40 40 42 37 35 33 20 22 23 21 16 15 15 16 17 17 17 19 22 22 19 18 17 16 16 17 19 19 21 22 18 20 22
32 37 46 51 51 50 49 46 43 40 40 45 37 37 39 37 33 28 25 21 21 15 16 16 17 17 18 20 22 23 21 19 19 19 17 16 17 19 17 17 18 20 22 25
34 34 35 39 44 47 49 47 42 42 42 43 29 35 40 44 33 26 25 20 17 19 17 17 17 17 20 22 23 22 22 19 19 18 17 16 16 14 14 16 18 21 24 28
38 35 33 32 37 38 40 39 39 41 38 35 34 41 44 34 25 20 19 21 18 20 22 18 18 18 23 23 22 21 21 20 19 18 16 13 13 14 16 19 21 24 27 31
39 39 27 36 36 40 38 40 31 35 37 37 36 34 39 26 22 22 22 15 16 19 18 18 19 20 24 24 23 20 21 20 20 18 15 14 15 17 19 21 23 26 30 33
40 40 37 33 38 40 46 29 30 36 35 36 32 31 34 28 17 23 26 18 18 17 15 17 20 21 22 24 23 20 20 20 20 19 18 17 19 21 23 25 26 29 32 35
41 42 34 40 38 40 42 41 38 32 35 34 32 33 24 33 22 14 16 14 20 20 17 19 20 20 20 21 22 21 19 18 19 20 19 20 23 26 28 29 31 33 35 37
41 39 40 28 32 40 38 33 28 32 33 33 33 35 27 24 31 23 23 25 25 28 23 23 23 19 17 18 20 22 21 20 19 19 21 23 25 29 32 32 32 34 36 39
42 41 37 24 29 31 29 29 29 34 37 37 36 34 25 30 32 30 23 24 24 27 26 25 24 18 17 16 18 21 21 22 23 23 24 26 28 32 34 34 36 37 40 43
42 42 39 29 22 25 30 27 30 33 40 36 34 28 36 26 23 24 27 24 25 24 21 20 22 19 20 17 18 20 21 23 25 26 27 27 29 33 35 36 38 41 43 47
43 42 38 27 25 30 30 33 33 31 35 34 28 33 31 29 27 30 22 21 25 26 26 29 21 17 17 17 19 21 22 23 25 27 29 30 32 35 37 38 41 43 47 50
46 41 38 29 28 29 34 35 34 30 35 30 29 31 36 34 29 32 28 27 27 27 33 30 24 18 16 18 21 23 24 26 28 30 31 33 36 38 39 41 44 47 51 54
42 42 38 30 31 34 38 30 29 33 36 27 26 26 30 31 28 24 23 24 27 32 32 28 26 19 18 20 23 26 28 31 33 34 34 36 39 40 42 44 48 52 55 58
46 45 39 38 35 39 30 31 38 33 31 34 30 28 27 26 22 23 24 26 26 23 23 23 22 23 23 24 26 29 31 33 35 37 38 39 41 43 45 48 52 56 60 61
46 41 41 40 41 39 33 32 30 30 27 35 33 35 34 29 22 26 25 22 20 20 19 20 22 23 26 29 31 32 33 35 36 39 41 43 44 46 49 53 57 60 63 63
38 40 37 38 40 34 25 34 30 28 27 26 25 24 21 24 26 24 21 21 21 21 22 23 25 29 31 32 33 34 35 37 39 41 43 44 46 49 53 57 60 63 63 61
42 41 37 34 31 30 25 28 26 31 14 22 21 22 22 23 23 22 22 22 24 25 27 28 29 31 32 33 34 35 37 38 42 43 45 48 51 54 58 61 64 64 61 58
40 46 40 36 34 30 24 26 27 17 20 23 21 22 22 21 21 22 23 27 28 28 28 30 33 33 35 36 36 38 39 41 44 47 50 53 56 60 63 65 66 63 55 55
44 49 41 34 26 22 23 26 29 27 26 25 23 22 22 22 23 25 28 29 28 29 29 29 31 32 33 35 37 39 41 45 50 54 56 60 64 65 67 65 56 41 50 47
46 41 41 38 33 30 30 29 29 27 25 26 27 25 25 26 25 26 27 27 28 29 30 30 32 34 34 38 42 46 47 50 54 57 60 62 66 68 68 47 45 52 60 50
44 44 40 28 35 35 36 30 27 28 29 29 28 28 26 26 26 26 28 29 28 31 34 36 38 41 44 45 47 49 50 55 58 62 65 69 70 66 63 49 57 57 58 59
38 35 31 30 32 36 32 30 30 34 34 31 29 27 26 27 30 33 33 34 35 38 39 40 42 43 45 49 52 55 58 61 64 66 67 66 63 64 66 65 62 63 61 53
Wind_Direction
260 265 271 272 274 278 278 278 283 287 295 301 302 295 302 313 319 315 299 296 304 303 298 286 290 295 306 313 313 310 311 310 313 307 308 313 315 317 317 319 322 323 320 315
258 260 265 265 268 270 275 279 282 285 292 289 284 283 293 301 307 302 288 287 299 289 286 276 277 281 291 297 296 297 303 303 304 301 297 299 301 304 308 310 315 315 317 318
257 257 260 261 264 268 270 274 278 278 277 281 285 282 289 286 297 295 277 281 288 285 283 273 275 283 291 298 301 307 307 306 307 301 292 297 303 308 308 305 305 310 318 314
259 255 257 263 265 267 269 275 274 272 275 279 277 284 282 283 287 280 263 270 288 283 276 271 276 282 288 290 294 304 306 304 306 302 296 296 295 293 294 297 304 310 307 310
266 260 255 256 259 265 269 270 270 272 271 274 277 287 283 285 286 281 259 263 277 276 267 270 273 281 288 289 293 303 303 301 300 296 289 288 285 288 296 297 301 302 309 322
277 266 260 258 259 261 266 269 269 271 271 269 284 279 277 281 281 269 249 263 265 262 266 268 278 284 286 288 293 302 299 295 294 288 288 289 295 297 301 294 298 308 318 320
275 269 263 261 259 262 264 267 272 269 267 279 277 266 274 278 278 259 238 246 263 260 271 271 275 281 285 286 294 301 295 294 290 287 292 298 298 296 294 299 307 315 316 316
265 267 271 264 263 261 261 262 263 269 273 276 267 268 270 272 273 239 234 251 263 262 266 266 274 282 280 284 290 296 292 291 285 287 291 297 286 293 300 306 310 314 315 315
267 264 263 256 253 255 257 259 270 268 267 270 270 265 261 257 256 249 233 244 250 251 262 270 275 275 279 283 288 288 287 286 282 285 289 292 296 301 305 305 308 312 314 315
267 264 264 253 249 244 250 248 249 255 264 267 270 259 250 252 256 243 245 248 237 256 261 268 271 274 277 282 286 286 285 280 280 283 290 297 302 303 305 306 311 314 315 315
269 268 264 263 253 246 240 247 247 254 252 264 267 259 246 241 253 239 238 272 253 260 266 275 272 274 279 284 287 287 282 279 276 284 294 299 302 304 305 311 315 313 314 314
272 270 266 264 259 254 253 254 239 250 251 261 259 262 247 241 255 252 268 275 255 276 277 277 274 281 279 282 282 282 282 282 286 294 302 305 307 306 306 309 310 309 310 310
266 265 266 255 247 248 253 247 241 239 246 252 245 255 254 243 257 257 263 262 259 270 276 273 277 280 281 279 275 276 281 287 295 302 304 307 306 304 305 308 307 308 309 310
259 259 259 256 242 248 252 251 246 243 247 251 245 246 253 250 261 250 261 263 268 263 265 278 272 272 269 271 270 273 281 288 291 296 300 301 301 300 301 303 305 306 308 310
247 251 250 248 242 240 239 243 243 245 249 249 233 240 244 252 258 252 260 270 272 260 273 281 282 268 268 278 282 279 281 288 292 294 298 298 300 298 298 301 303 305 307 308
244 244 244 245 244 244 237 237 240 247 243 241 240 240 243 250 252 263 264 278 274 269 273 280 279 268 276 281 281 286 290 293 295 295 296 297 297 296 299 301 302 304 305 305
243 240 237 253 246 244 242 239 254 251 232 237 253 244 239 246 244 262 277 276 272 269 277 277 282 283 287 284 288 290 292 293 294 295 295 296 297 298 298 299 301 302 303 302
231 233 233 250 238 238 243 233 233 231 238 234 248 249 256 242 267 273 268 264 268 273 277 280 284 288 291 291 289 289 290 291 293 295 295 295 297 297 297 298 300 301 301 301
215 232 247 251 247 256 239 232 236 244 237 235 243 250 249 261 275 265 271 270 266 265 270 275 283 283 283 285 286 285 288 292 295 294 295 297 297 297 297 298 299 299 299 300
230 242 246 239 238 241 235 223 229 232 234 241 256 259 258 252 251 255 256 259 270 279 283 285 284 282 281 282 286 292 294 295 296 295 296 295 295 295 295 295 297 298 299 301
235 230 223 228 234 237 227 230 233 234 238 246 248 244 243 239 242 249 256 262 272 277 276 280 283 283 287 289 291 295 296 296 293 294 292 292 292 292 293 294 295 296 299 301
236 226 231 237 243 233 224 220 238 226 223 234 239 245 250 250 252 257 262 264 269 277 279 282 285 288 290 291 292 292 292 290 291 289 289 290 291 291 291 292 294 299 299 307
229 226 235 235 228 228 220 221 222 227 230 236 240 240 242 248 252 257 262 268 272 274 278 280 282 286 290 291 290 290 289 291 293 293 292 291 290 291 294 296 299 288 290 299
222 223 227 225 223 216 224 225 227 224 232 236 239 245 247 250 254 259 265 271 277 281 281 281 283 285 286 288 294 296 294 292 289 286 287 289 291 293 295 295 291 281 294 279
223 222 217 230 228 223 222 219 230 229 234 241 245 248 252 255 258 265 272 276 281 282 279 280 286 290 293 292 290 288 286 285 285 286 288 289 293 296 295 290 282 287 291 289
211 219 226 235 230 224 227 233 234 235 239 245 249 250 250 258 267 273 277 281 278 276 282 288 289 288 287 283 282 284 283 285 287 288 290 294 297 296 295 292 286 283 287 286
Height
5881 5879 5886 5887 5881 5883 5883 5883 5884 5879 5876 5871 5868 5867 5866 5867 5866 5864 5863 5862 5861 5861 5861 5857 5855 5854 5852 5851 5849 5848 5846 5845 5845 5843 5840 5838 5836 5834 5833 5832 5831 5830 5827 5823
5871 5873 5878 5876 5875 5874 5873 5876 5877 5873 5869 5867 5865 5864 5863 5863 5862 5861 5859 5858 5857 5857 5858 5855 5853 5852 5851 5849 5847 5844 5843 5842 5841 5839 5836 5833 5832 5832 5830 5829 5826 5825 5823 5819
5858 5865 5864 5864 5867 5865 5866 5869 5870 5868 5865 5859 5860 5857 5859 5859 5859 5856 5855 5853 5853 5852 5853 5851 5849 5849 5847 5845 5842 5840 5838 5838 5836 5835 5833 5830 5828 5826 5825 5824 5823 5821 5818 5815
5847 5853 5855 5855 5855 5857 5857 5862 5860 5860 5858 5854 5855 5853 5852 5853 5854 5855 5853 5851 5849 5848 5848 5847 5846 5845 5843 5841 5839 5837 5834 5834 5833 5831 5830 5827 5825 5824 5822 5820 5816 5814 5812 5810
5840 5841 5844 5842 5846 5846 5846 5852 5850 5850 5849 5846 5846 5846 5843 5845 5846 5849 5849 5846 5845 5844 5843 5843 5841 5840 5838 5836 5835 5833 5831 5829 5828 5827 5826 5824 5822 5820 5817 5815 5812 5810 5807 5802
5831 5830 5829 5833 5836 5838 5839 5839 5841 5840 5839 5835 5843 5839 5833 5835 5838 5840 5841 5840 5839 5839 5839 5838 5837 5836 5833 5832 5830 5829 5827 5825 5823 5822 5821 5819 5817 5815 5812 5810 5808 5804 5800 5796
5822 5821 5822 5822 5823 5827 5827 5829 5830 5829 5828 5827 5835 5830 5827 5824 5829 5831 5833 5833 5834 5834 5834 5833 5832 5830 5828 5827 5826 5823 5822 5821 5818 5816 5815 5812 5812 5810 5808 5805 5801 5797 5794 5791
5813 5814 5814 5818 5815 5818 5818 5821 5820 5819 5820 5822 5821 5816 5815 5820 5822 5824 5826 5827 5827 5827 5828 5828 5827 5825 5824 5822 5820 5819 5816 5815 5813 5811 5810 5809 5808 5805 5802 5799 5795 5792 5789 5785
5804 5804 5808 5804 5808 5807 5808 5807 5816 5811 5810 5808 5810 5809 5806 5813 5815 5818 5821 5822 5822 5822 5822 5821 5821 5821 5819 5816 5815 5814 5812 5809 5807 5806 5805 5802 5801 5798 5796 5793 5790 5786 5783 5779
5795 5793 5796 5799 5797 5796 5794 5804 5803 5800 5801 5799 5799 5800 5800 5806 5810 5810 5814 5814 5817 5818 5818 5818 5817 5816 5813 5811 5809 5808 5808 5805 5803 5800 5799 5796 5794 5792 5789 5786 5783 5780 5775 5771
5785 5786 5790 5786 5787 5787 5789 5790 5793 5795 5793 5791 5791 5793 5799 5800 5802 5804 5807 5810 5811 5812 5813 5813 5811 5809 5807 5805 5803 5802 5802 5801 5798 5795 5793 5790 5788 5785 5782 5779 5775 5771 5767 5762
5776 5776 5774 5781 5780 5779 5781 5785 5787 5783 5787 5785 5786 5786 5792 5796 5794 5798 5800 5803 5805 5806 5808 5805 5804 5803 5802 5800 5798 5797 5796 5795 5793 5790 5788 5785 5782 5779 5776 5772 5768 5764 5759 5754
5768 5766 5767 5770 5771 5770 5772 5775 5777 5777 5778 5778 5778 5781 5784 5790 5790 5791 5795 5796 5797 5800 5799 5796 5796 5795 5795 5795 5794 5792 5791 5789 5786 5784 5782 5778 5775 5772 5769 5765 5759 5755 5750 5744
5759 5759 5759 5762 5766 5765 5766 5768 5767 5768 5767 5771 5773 5778 5777 5781 5784 5784 5785 5789 5791 5792 5790 5790 5791 5790 5789 5788 5788 5787 5786 5783 5780 5777 5775 5771 5768 5764 5760 5756 5751 5746 5741 5735
5749 5749 5751 5755 5756 5757 5759 5760 5759 5760 5761 5763 5770 5769 5774 5774 5777 5779 5778 5783 5784 5784 5784 5782 5783 5784 5783 5782 5781 5780 5778 5776 5773 5771 5767 5763 5759 5755 5751 5747 5743 5738 5732 5726
5739 5741 5743 5746 5748 5748 5749 5751 5752 5754 5756 5759 5760 5763 5768 5768 5770 5772 5773 5775 5777 5778 5776 5775 5775 5776 5776 5774 5773 5772 5770 5767 5765 5762 5758 5754 5750 5746 5743 5739 5734 5728 5722 5715
5732 5733 5735 5737 5740 5740 5736 5745 5746 5748 5749 5753 5754 5760 5758 5762 5764 5765 5767 5769 5768 5767 5767 5766 5766 5766 5766 5766 5765 5763 5761 5759 5756 5752 5748 5745 5741 5738 5734 5729 5724 5717 5710 5703
5720 5723 5726 5728 5729 5726 5734 5736 5737 5739 5743 5746 5748 5751 5754 5755 5756 5758 5760 5762 5763 5763 5761 5759 5759 5759 5759 5759 5758 5755 5752 5749 5746 5743 5739 5735 5732 5728 5723 5718 5712 5705 5698 5690
5707 5713 5714 5715 5719 5722 5725 5728 5732 5735 5737 5738 5741 5743 5745 5748 5749 5749 5751 5753 5753 5754 5755 5754 5754 5753 5751 5749 5748 5745 5743 5741 5739 5734 5730 5726 5722 5718 5712 5706 5699 5692 5684 5677
5696 5702 5704 5706 5707 5709 5719 5721 5723 5726 5729 5732 5734 5737 5739 5742 5742 5745 5747 5746 5747 5747 5747 5747 5746 5745 5743 5742 5740 5737 5734 5732 5729 5725 5721 5716 5711 5705 5699 5692 5685 5678 5671 5664
5688 5693 5694 5698 5701 5704 5711 5714 5716 5716 5730 5725 5728 5731 5733 5735 5738 5740 5740 5741 5741 5741 5740 5739 5738 5736 5735 5733 5730 5728 5726 5723 5718 5714 5709 5704 5698 5692 5684 5677 5670 5662 5655 5650
5680 5686 5689 5693 5694 5697 5706 5709 5710 5718 5715 5719 5723 5725 5727 5729 5731 5732 5733 5732 5732 5733 5732 5730 5730 5729 5727 5724 5720 5717 5715 5710 5706 5701 5696 5690 5684 5677 5669 5662 5655 5648 5641 5636
5670 5676 5684 5689 5692 5696 5699 5704 5706 5708 5711 5713 5715 5717 5719 5721 5722 5723 5723 5723 5724 5724 5723 5721 5720 5718 5715 5713 5709 5706 5702 5697 5692 5686 5681 5674 5667 5662 5656 5648 5642 5639 5630 5629
5662 5669 5673 5679 5685 5688 5690 5694 5699 5702 5704 5707 5708 5710 5711 5713 5713 5714 5714 5713 5713 5712 5711 5710 5708 5707 5705 5702 5700 5696 5691 5687 5681 5674 5665 5658 5651 5646 5641 5637 5632 5622 5617 5614
5656 5662 5667 5672 5677 5680 5681 5687 5692 5694 5696 5698 5699 5702 5705 5706 5707 5706 5705 5705 5704 5702 5699 5697 5696 5695 5693 5689 5685 5681 5674 5669 5663 5657 5652 5644 5635 5629 5624 5622 5616 5608 5601 5597
5645 5653 5658 5664 5670 5674 5676 5678 5682 5685 5686 5689 5692 5694 5695 5696 5697 5696 5694 5694 5693 5689 5688 5687 5684 5681 5677 5673 5668 5662 5657 5651 5645 5641 5634 5626 5620 5614 5606 5601 5595 5590 5585 5580